Wetterdaten: aktuell Mittwoch, 24.07.2019 06:52
Datum Zeit Temp. I. Temp. 2m Temp. 5cm Feuchte I. Feuchte 2m Luftdruck Regen Wind Richtung Richtung Taupunkt Windchill Windben
24.07.2019 06:52 24,0 C 19,7 C 18,2 C 62 % 62 % 1022,4 hPa 0,0 l/m 8,2 km/h (2 Bft) NO 45 12,2 C 19,7 C 8,5 km/h (2 Bft)
24.07.2019 06:50 24,0 C 19,7 C 18,1 C 62 % 61 % 1022,4 hPa 0,0 l/m 8,2 km/h (2 Bft) NO 45 12,0 C 19,7 C 12,2 km/h (2 Bft)
24.07.2019 06:48 24,0 C 19,7 C 18,1 C 62 % 61 % 1022,4 hPa 0,0 l/m 8,4 km/h (2 Bft) NO 45 12,0 C 19,7 C 9,1 km/h (2 Bft)
24.07.2019 06:46 24,0 C 19,7 C 18,0 C 62 % 62 % 1022,4 hPa 0,0 l/m 8,7 km/h (2 Bft) N-NO 22 12,2 C 19,7 C 10,0 km/h (2 Bft)
24.07.2019 06:44 24,0 C 19,5 C 17,9 C 62 % 62 % 1022,4 hPa 0,0 l/m 8,9 km/h (2 Bft) N-NO 22 12,0 C 19,5 C 12,2 km/h (2 Bft)
24.07.2019 06:42 24,0 C 19,5 C 17,8 C 62 % 62 % 1022,4 hPa 0,0 l/m 9,0 km/h (2 Bft) N-NO 22 12,0 C 19,5 C 11,8 km/h (2 Bft)
24.07.2019 06:40 24,0 C 19,5 C 17,7 C 62 % 62 % 1022,4 hPa 0,0 l/m 9,0 km/h (2 Bft) O-NO 67 12,0 C 19,5 C 10,4 km/h (2 Bft)
24.07.2019 06:38 24,0 C 19,5 C 17,6 C 62 % 62 % 1022,4 hPa 0,0 l/m 9,2 km/h (2 Bft) NO 45 12,0 C 19,5 C 12,7 km/h (3 Bft)
24.07.2019 06:36 23,9 C 19,4 C 17,5 C 62 % 62 % 1022,4 hPa 0,0 l/m 9,5 km/h (2 Bft) N-NO 22 11,9 C 19,4 C 13,1 km/h (3 Bft)
24.07.2019 06:34 24,0 C 19,3 C 17,4 C 62 % 63 % 1022,4 hPa 0,0 l/m 9,7 km/h (2 Bft) NO 45 12,1 C 19,3 C 12,0 km/h (2 Bft)
24.07.2019 06:32 23,9 C 19,3 C 17,3 C 62 % 62 % 1022,2 hPa 0,0 l/m 9,8 km/h (2 Bft) N-NO 22 11,8 C 19,3 C 11,4 km/h (2 Bft)
24.07.2019 06:30 23,9 C 19,3 C 17,3 C 63 % 62 % 1022,2 hPa 0,0 l/m 9,8 km/h (2 Bft) NO 45 11,8 C 19,3 C 11,8 km/h (2 Bft)
24.07.2019 06:28 23,9 C 19,3 C 17,2 C 62 % 62 % 1022,2 hPa 0,0 l/m 10,0 km/h (2 Bft) N-NO 22 11,8 C 19,3 C 14,5 km/h (3 Bft)
24.07.2019 06:26 23,9 C 19,3 C 17,1 C 63 % 63 % 1022,2 hPa 0,0 l/m 9,8 km/h (2 Bft) N-NO 22 12,1 C 19,3 C 12,4 km/h (3 Bft)
24.07.2019 06:24 23,9 C 19,1 C 16,9 C 63 % 63 % 1022,2 hPa 0,0 l/m 9,5 km/h (2 Bft) N-NO 22 11,9 C 19,1 C 13,7 km/h (3 Bft)
24.07.2019 06:22 23,9 C 19,1 C 16,8 C 62 % 63 % 1022,2 hPa 0,0 l/m 9,3 km/h (2 Bft) N-NO 22 11,9 C 19,1 C 14,9 km/h (3 Bft)
24.07.2019 06:20 23,9 C 19,1 C 16,8 C 62 % 63 % 1022,2 hPa 0,0 l/m 9,2 km/h (2 Bft) NO 45 11,9 C 19,1 C 11,6 km/h (2 Bft)
24.07.2019 06:18 23,9 C 19,3 C 16,8 C 62 % 62 % 1022,2 hPa 0,0 l/m 9,2 km/h (2 Bft) NO 45 11,8 C 19,3 C 11,8 km/h (2 Bft)
24.07.2019 06:16 23,9 C 19,1 C 16,7 C 63 % 63 % 1022,2 hPa 0,0 l/m 9,0 km/h (2 Bft) NO 45 11,9 C 19,1 C 11,0 km/h (2 Bft)
24.07.2019 06:14 23,9 C 19,1 C 16,6 C 63 % 63 % 1022,2 hPa 0,0 l/m 9,2 km/h (2 Bft) N-NO 22 11,9 C 19,1 C 12,2 km/h (2 Bft)
24.07.2019 06:12 23,9 C 19,1 C 16,6 C 63 % 63 % 1022,1 hPa 0,0 l/m 9,0 km/h (2 Bft) N-NO 22 11,9 C 19,1 C 10,0 km/h (2 Bft)
24.07.2019 06:10 23,9 C 19,1 C 16,4 C 62 % 64 % 1022,1 hPa 0,0 l/m 9,0 km/h (2 Bft) N-NO 22 12,1 C 19,1 C 10,0 km/h (2 Bft)
24.07.2019 06:08 23,9 C 19,1 C 16,4 C 62 % 64 % 1022,1 hPa 0,0 l/m 9,0 km/h (2 Bft) N-NO 22 12,1 C 19,1 C 10,0 km/h (2 Bft)
24.07.2019 06:06 23,8 C 19,1 C 16,4 C 63 % 64 % 1022,1 hPa 0,0 l/m 9,0 km/h (2 Bft) N-NO 22 12,1 C 19,1 C 10,0 km/h (2 Bft)
24.07.2019 06:04 23,9 C 19,1 C 16,4 C 62 % 64 % 1022,1 hPa 0,0 l/m 9,0 km/h (2 Bft) N-NO 22 12,1 C 19,1 C 10,0 km/h (2 Bft)
24.07.2019 06:02 23,9 C 19,1 C 16,4 C 63 % 64 % 1022,1 hPa 0,0 l/m 9,2 km/h (2 Bft) N-NO 22 12,1 C 19,1 C 12,2 km/h (2 Bft)
24.07.2019 06:00 23,9 C 19,0 C 16,3 C 63 % 65 % 1022,1 hPa 0,0 l/m 9,3 km/h (2 Bft) N-NO 22 12,3 C 19,0 C 12,6 km/h (3 Bft)
24.07.2019 05:58 23,9 C 19,0 C 16,2 C 63 % 65 % 1022,1 hPa 0,0 l/m 9,2 km/h (2 Bft) N-NO 22 12,3 C 19,0 C 12,6 km/h (3 Bft)
24.07.2019 05:56 23,9 C 19,0 C 16,2 C 62 % 65 % 1022,1 hPa 0,0 l/m 9,3 km/h (2 Bft) N-NO 22 12,3 C 19,0 C 12,2 km/h (2 Bft)
24.07.2019 05:54 23,9 C 19,0 C 16,2 C 62 % 65 % 1022,1 hPa 0,0 l/m 9,3 km/h (2 Bft) N-NO 22 12,3 C 19,0 C 11,4 km/h (2 Bft)
24.07.2019 05:52 23,9 C 19,1 C 16,2 C 62 % 64 % 1022,3 hPa 0,0 l/m 9,2 km/h (2 Bft) N-NO 22 12,1 C 19,1 C 13,1 km/h (3 Bft)
24.07.2019 05:50 23,9 C 19,0 C 16,2 C 62 % 64 % 1022,3 hPa 0,0 l/m 9,2 km/h (2 Bft) N-NO 22 12,0 C 19,0 C 12,0 km/h (2 Bft)
24.07.2019 05:48 23,8 C 19,0 C 16,0 C 63 % 64 % 1022,3 hPa 0,0 l/m 9,0 km/h (2 Bft) N-NO 22 12,0 C 19,0 C 11,2 km/h (2 Bft)
24.07.2019 05:46 23,9 C 19,1 C 16,0 C 62 % 64 % 1022,3 hPa 0,0 l/m 9,2 km/h (2 Bft) N-NO 22 12,1 C 19,1 C 12,2 km/h (2 Bft)
24.07.2019 05:44 23,9 C 19,1 C 16,0 C 63 % 64 % 1022,3 hPa 0,0 l/m 9,0 km/h (2 Bft) N-NO 22 12,1 C 19,1 C 10,8 km/h (2 Bft)
24.07.2019 05:42 23,9 C 19,2 C 16,1 C 62 % 63 % 1022,3 hPa 0,0 l/m 9,0 km/h (2 Bft) N-NO 22 12,0 C 19,2 C 11,2 km/h (2 Bft)
24.07.2019 05:40 23,9 C 19,2 C 16,1 C 63 % 63 % 1022,3 hPa 0,0 l/m 8,9 km/h (2 Bft) N-NO 22 12,0 C 19,2 C 13,5 km/h (3 Bft)
24.07.2019 05:38 23,9 C 19,1 C 16,0 C 62 % 64 % 1022,3 hPa 0,0 l/m 8,7 km/h (2 Bft) N-NO 22 12,1 C 19,1 C 10,4 km/h (2 Bft)
24.07.2019 05:36 23,9 C 19,1 C 16,0 C 63 % 64 % 1022,3 hPa 0,0 l/m 8,5 km/h (2 Bft) NO 45 12,1 C 19,1 C 13,9 km/h (3 Bft)
24.07.2019 05:34 23,9 C 19,2 C 15,9 C 62 % 64 % 1022,3 hPa 0,0 l/m 8,0 km/h (2 Bft) N-NO 22 12,2 C 19,2 C 12,4 km/h (3 Bft)
24.07.2019 05:32 23,9 C 19,1 C 15,7 C 62 % 64 % 1022,2 hPa 0,0 l/m 7,7 km/h (2 Bft) N-NO 22 12,1 C 19,1 C 10,8 km/h (2 Bft)
24.07.2019 05:30 23,9 C 19,0 C 15,7 C 62 % 64 % 1022,2 hPa 0,0 l/m 7,6 km/h (2 Bft) N-NO 22 12,0 C 19,0 C 10,8 km/h (2 Bft)
24.07.2019 05:28 23,9 C 19,1 C 15,7 C 62 % 64 % 1022,2 hPa 0,0 l/m 7,7 km/h (2 Bft) N-NO 22 12,1 C 19,1 C 10,8 km/h (2 Bft)
24.07.2019 05:26 23,9 C 19,0 C 15,6 C 62 % 64 % 1022,2 hPa 0,0 l/m 7,6 km/h (2 Bft) N 360 12,0 C 19,0 C 9,5 km/h (2 Bft)
24.07.2019 05:24 23,9 C 19,1 C 15,7 C 62 % 64 % 1022,2 hPa 0,0 l/m 7,6 km/h (2 Bft) NO 45 12,1 C 19,1 C 9,8 km/h (2 Bft)
24.07.2019 05:22 23,9 C 19,2 C 15,8 C 62 % 63 % 1022,2 hPa 0,0 l/m 7,7 km/h (2 Bft) N-NO 22 12,0 C 19,2 C 10,6 km/h (2 Bft)
24.07.2019 05:20 23,9 C 19,2 C 15,8 C 63 % 63 % 1022,2 hPa 0,0 l/m 7,9 km/h (2 Bft) N-NO 22 12,0 C 19,2 C 7,9 km/h (2 Bft)
24.07.2019 05:18 23,9 C 19,2 C 15,7 C 62 % 64 % 1022,2 hPa 0,0 l/m 8,0 km/h (2 Bft) NO 45 12,2 C 19,2 C 12,6 km/h (3 Bft)
24.07.2019 05:16 23,9 C 19,1 C 15,8 C 62 % 64 % 1022,2 hPa 0,0 l/m 7,9 km/h (2 Bft) NO 45 12,1 C 19,1 C 7,9 km/h (2 Bft)
24.07.2019 05:14 23,9 C 19,3 C 15,8 C 62 % 63 % 1022,2 hPa 0,0 l/m 7,9 km/h (2 Bft) NO 45 12,1 C 19,3 C 11,0 km/h (2 Bft)
24.07.2019 05:12 23,9 C 19,3 C 16,0 C 62 % 63 % 1022,1 hPa 0,0 l/m 7,7 km/h (2 Bft) NO 45 12,1 C 19,3 C 11,2 km/h (2 Bft)
24.07.2019 05:10 23,9 C 19,1 C 15,8 C 62 % 65 % 1022,1 hPa 0,0 l/m 7,7 km/h (2 Bft) N-NO 22 12,4 C 19,1 C 12,7 km/h (3 Bft)
24.07.2019 05:08 23,9 C 19,1 C 15,8 C 62 % 65 % 1022,1 hPa 0,0 l/m 7,6 km/h (2 Bft) N-NO 22 12,4 C 19,1 C 11,6 km/h (2 Bft)
24.07.2019 05:06 23,9 C 18,9 C 15,7 C 62 % 65 % 1022,1 hPa 0,0 l/m 7,6 km/h (2 Bft) NO 45 12,2 C 18,9 C 9,8 km/h (2 Bft)
24.07.2019 05:04 23,9 C 19,1 C 15,7 C 63 % 64 % 1022,1 hPa 0,0 l/m 8,5 km/h (2 Bft) NO 45 12,1 C 19,1 C 9,1 km/h (2 Bft)
24.07.2019 05:01 23,9 C 19,1 C 16,0 C 62 % 64 % 1022,1 hPa 0,0 l/m 8,9 km/h (2 Bft) N-NO 22 12,1 C 19,1 C 8,9 km/h (2 Bft)
24.07.2019 04:58 23,9 C 19,0 C 16,0 C 62 % 65 % 1022,1 hPa 0,0 l/m 9,0 km/h (2 Bft) NO 45 12,3 C 19,0 C 11,2 km/h (2 Bft)
24.07.2019 04:56 23,9 C 18,9 C 16,2 C 62 % 65 % 1022,1 hPa 0,0 l/m 9,5 km/h (2 Bft) N 360 12,2 C 18,9 C 16,8 km/h (3 Bft)
24.07.2019 04:54 23,9 C 18,9 C 16,0 C 62 % 66 % 1022,1 hPa 0,0 l/m 9,0 km/h (2 Bft) N-NO 22 12,4 C 18,9 C 13,5 km/h (3 Bft)
24.07.2019 04:52 23,9 C 18,9 C 15,9 C 62 % 66 % 1022,1 hPa 0,0 l/m 8,7 km/h (2 Bft) NO 45 12,4 C 18,9 C 12,7 km/h (3 Bft)
24.07.2019 04:50 23,9 C 18,8 C 15,8 C 62 % 66 % 1022,1 hPa 0,0 l/m 8,7 km/h (2 Bft) N-NO 22 12,3 C 18,8 C 11,0 km/h (2 Bft)
24.07.2019 04:48 23,9 C 18,8 C 15,7 C 62 % 66 % 1022,1 hPa 0,0 l/m 8,4 km/h (2 Bft) N-NO 22 12,3 C 18,8 C 11,4 km/h (2 Bft)
24.07.2019 04:46 23,9 C 18,9 C 15,7 C 62 % 65 % 1022,1 hPa 0,0 l/m 8,5 km/h (2 Bft) N-NO 22 12,2 C 18,9 C 12,9 km/h (3 Bft)
24.07.2019 04:44 23,9 C 18,9 C 15,7 C 62 % 65 % 1022,1 hPa 0,0 l/m 8,4 km/h (2 Bft) NO 45 12,2 C 18,9 C 11,6 km/h (2 Bft)
24.07.2019 04:42 23,9 C 19,0 C 15,7 C 62 % 65 % 1022,1 hPa 0,0 l/m 8,2 km/h (2 Bft) NO 45 12,3 C 19,0 C 11,0 km/h (2 Bft)
24.07.2019 04:40 23,9 C 19,0 C 15,8 C 62 % 65 % 1022,1 hPa 0,0 l/m 7,9 km/h (2 Bft) NO 45 12,3 C 19,0 C 10,2 km/h (2 Bft)
24.07.2019 04:38 23,9 C 19,3 C 15,9 C 62 % 64 % 1022,1 hPa 0,0 l/m 8,0 km/h (2 Bft) N-NO 22 12,3 C 19,3 C 10,0 km/h (2 Bft)
24.07.2019 04:36 23,9 C 19,4 C 16,0 C 62 % 64 % 1022,1 hPa 0,0 l/m 8,2 km/h (2 Bft) N-NO 22 12,4 C 19,4 C 12,2 km/h (2 Bft)
24.07.2019 04:34 23,9 C 19,4 C 16,0 C 62 % 64 % 1022,1 hPa 0,0 l/m 8,0 km/h (2 Bft) N-NO 22 12,4 C 19,4 C 10,8 km/h (2 Bft)
24.07.2019 04:32 23,9 C 19,2 C 16,0 C 62 % 64 % 1022,1 hPa 0,0 l/m 8,4 km/h (2 Bft) N-NO 22 12,2 C 19,2 C 10,4 km/h (2 Bft)
24.07.2019 04:30 23,9 C 19,2 C 16,0 C 62 % 64 % 1022,1 hPa 0,0 l/m 8,7 km/h (2 Bft) NO 45 12,2 C 19,2 C 7,1 km/h (2 Bft)
24.07.2019 04:28 23,9 C 19,1 C 16,0 C 62 % 65 % 1022,1 hPa 0,0 l/m 9,2 km/h (2 Bft) N-NO 22 12,4 C 19,1 C 13,3 km/h (3 Bft)
24.07.2019 04:26 23,9 C 19,1 C 16,0 C 62 % 65 % 1022,1 hPa 0,0 l/m 9,0 km/h (2 Bft) N-NO 22 12,4 C 19,1 C 11,4 km/h (2 Bft)
24.07.2019 04:24 23,9 C 19,1 C 16,0 C 62 % 65 % 1022,1 hPa 0,0 l/m 8,9 km/h (2 Bft) NO 45 12,4 C 19,1 C 10,0 km/h (2 Bft)
24.07.2019 04:22 23,9 C 19,1 C 16,0 C 62 % 65 % 1022,1 hPa 0,0 l/m 8,5 km/h (2 Bft) N-NO 22 12,4 C 19,1 C 10,8 km/h (2 Bft)
24.07.2019 04:20 23,9 C 19,3 C 16,0 C 62 % 64 % 1022,1 hPa 0,0 l/m 8,5 km/h (2 Bft) N-NO 22 12,3 C 19,3 C 12,0 km/h (2 Bft)
24.07.2019 04:18 23,9 C 19,3 C 16,0 C 62 % 64 % 1022,1 hPa 0,0 l/m 8,4 km/h (2 Bft) N-NO 22 12,3 C 19,3 C 11,4 km/h (2 Bft)
24.07.2019 04:16 23,9 C 19,4 C 16,0 C 62 % 64 % 1022,1 hPa 0,0 l/m 8,4 km/h (2 Bft) NO 45 12,4 C 19,4 C 11,4 km/h (2 Bft)
24.07.2019 04:14 23,9 C 19,4 C 16,0 C 62 % 64 % 1022,1 hPa 0,0 l/m 8,7 km/h (2 Bft) NO 45 12,4 C 19,4 C 9,5 km/h (2 Bft)
24.07.2019 04:12 23,9 C 19,4 C 16,1 C 62 % 64 % 1022,3 hPa 0,0 l/m 9,0 km/h (2 Bft) NO 45 12,4 C 19,4 C 10,8 km/h (2 Bft)
24.07.2019 04:10 23,9 C 19,2 C 16,0 C 62 % 65 % 1022,3 hPa 0,0 l/m 9,2 km/h (2 Bft) N-NO 22 12,5 C 19,2 C 12,2 km/h (2 Bft)
24.07.2019 04:08 23,9 C 19,2 C 16,0 C 62 % 65 % 1022,3 hPa 0,0 l/m 9,3 km/h (2 Bft) N-NO 22 12,5 C 19,2 C 10,0 km/h (2 Bft)
24.07.2019 04:06 23,9 C 19,2 C 16,0 C 62 % 65 % 1022,3 hPa 0,0 l/m 9,5 km/h (2 Bft) N-NO 22 12,5 C 19,2 C 14,7 km/h (3 Bft)
24.07.2019 04:04 23,9 C 19,4 C 16,1 C 62 % 65 % 1022,3 hPa 0,0 l/m 9,5 km/h (2 Bft) NO 45 12,6 C 19,4 C 13,5 km/h (3 Bft)
24.07.2019 04:02 23,9 C 19,4 C 15,9 C 62 % 65 % 1022,3 hPa 0,0 l/m 9,0 km/h (2 Bft) N-NO 22 12,6 C 19,4 C 9,5 km/h (2 Bft)
24.07.2019 04:00 23,9 C 19,0 C 15,9 C 62 % 67 % 1022,3 hPa 0,0 l/m 9,0 km/h (2 Bft) NO 45 12,7 C 19,0 C 11,8 km/h (2 Bft)
24.07.2019 03:58 23,9 C 19,0 C 15,9 C 62 % 67 % 1022,3 hPa 0,0 l/m 8,4 km/h (2 Bft) N-NO 22 12,7 C 19,0 C 11,6 km/h (2 Bft)
24.07.2019 03:56 23,9 C 19,0 C 15,8 C 62 % 67 % 1022,3 hPa 0,0 l/m 7,9 km/h (2 Bft) N-NO 22 12,7 C 19,0 C 12,6 km/h (3 Bft)
24.07.2019 03:54 23,9 C 19,1 C 15,8 C 62 % 67 % 1022,3 hPa 0,0 l/m 7,6 km/h (2 Bft) NO 45 12,8 C 19,1 C 11,4 km/h (2 Bft)
24.07.2019 03:52 23,9 C 18,9 C 15,8 C 62 % 67 % 1022,4 hPa 0,0 l/m 7,4 km/h (2 Bft) NO 45 12,6 C 18,9 C 10,6 km/h (2 Bft)
24.07.2019 03:50 23,9 C 18,9 C 15,7 C 62 % 67 % 1022,4 hPa 0,0 l/m 7,4 km/h (2 Bft) N-NO 22 12,6 C 18,9 C 8,3 km/h (2 Bft)
24.07.2019 03:48 24,0 C 19,0 C 15,8 C 62 % 67 % 1022,4 hPa 0,0 l/m 7,7 km/h (2 Bft) N-NO 22 12,7 C 19,0 C 9,3 km/h (2 Bft)
24.07.2019 03:46 23,9 C 19,0 C 15,8 C 62 % 67 % 1022,4 hPa 0,0 l/m 7,9 km/h (2 Bft) NO 45 12,7 C 19,0 C 7,9 km/h (2 Bft)
24.07.2019 03:44 23,9 C 19,3 C 16,0 C 62 % 66 % 1022,4 hPa 0,0 l/m 7,9 km/h (2 Bft) NO 45 12,8 C 19,3 C 7,9 km/h (2 Bft)
24.07.2019 03:42 23,9 C 19,3 C 16,2 C 62 % 66 % 1022,4 hPa 0,0 l/m 7,9 km/h (2 Bft) N-NO 22 12,8 C 19,3 C 9,5 km/h (2 Bft)
24.07.2019 03:40 24,0 C 19,3 C 16,2 C 62 % 66 % 1022,4 hPa 0,0 l/m 7,7 km/h (2 Bft) N-NO 22 12,8 C 19,3 C 11,0 km/h (2 Bft)
24.07.2019 03:38 24,0 C 19,3 C 16,2 C 62 % 66 % 1022,4 hPa 0,0 l/m 7,7 km/h (2 Bft) N-NO 22 12,8 C 19,3 C 12,6 km/h (3 Bft)
24.07.2019 03:36 24,0 C 19,2 C 16,2 C 62 % 67 % 1022,4 hPa 0,0 l/m 7,6 km/h (2 Bft) N-NO 22 12,9 C 19,2 C 11,0 km/h (2 Bft)
24.07.2019 03:34 24,0 C 19,2 C 16,2 C 62 % 67 % 1022,4 hPa 0,0 l/m 7,6 km/h (2 Bft) N-NO 22 12,9 C 19,2 C 9,8 km/h (2 Bft)
24.07.2019 03:32 24,0 C 19,3 C 16,2 C 62 % 66 % 1022,6 hPa 0,0 l/m 7,6 km/h (2 Bft) N-NO 22 12,8 C 19,3 C 10,0 km/h (2 Bft)
24.07.2019 03:30 24,0 C 19,3 C 16,3 C 62 % 66 % 1022,6 hPa 0,0 l/m 7,6 km/h (2 Bft) N-NO 22 12,8 C 19,3 C 12,7 km/h (3 Bft)
24.07.2019 03:28 24,0 C 19,5 C 16,3 C 62 % 66 % 1022,6 hPa 0,0 l/m 7,6 km/h (2 Bft) N-NO 22 13,0 C 19,5 C 10,0 km/h (2 Bft)
24.07.2019 03:26 24,0 C 19,5 C 16,4 C 62 % 66 % 1022,6 hPa 0,0 l/m 7,6 km/h (2 Bft) N-NO 22 13,0 C 19,5 C 11,0 km/h (2 Bft)
24.07.2019 03:24 24,0 C 19,6 C 16,4 C 62 % 65 % 1022,6 hPa 0,0 l/m 8,0 km/h (2 Bft) N-NO 22 12,8 C 19,6 C 9,8 km/h (2 Bft)
24.07.2019 03:22 24,0 C 19,7 C 16,4 C 62 % 65 % 1022,6 hPa 0,0 l/m 8,2 km/h (2 Bft) N-NO 22 12,9 C 19,7 C 8,3 km/h (2 Bft)
24.07.2019 03:20 24,0 C 19,7 C 16,4 C 62 % 65 % 1022,6 hPa 0,0 l/m 8,4 km/h (2 Bft) N-NO 22 12,9 C 19,7 C 9,1 km/h (2 Bft)
24.07.2019 03:18 24,0 C 19,6 C 16,4 C 62 % 65 % 1022,6 hPa 0,0 l/m 8,7 km/h (2 Bft) N-NO 22 12,8 C 19,6 C 12,9 km/h (3 Bft)
24.07.2019 03:16 24,0 C 19,6 C 16,4 C 62 % 65 % 1022,6 hPa 0,0 l/m 8,9 km/h (2 Bft) N-NO 22 12,8 C 19,6 C 10,2 km/h (2 Bft)
24.07.2019 03:14 24,0 C 19,6 C 16,5 C 62 % 65 % 1022,6 hPa 0,0 l/m 8,7 km/h (2 Bft) NO 45 12,8 C 19,6 C 13,5 km/h (3 Bft)
24.07.2019 03:12 24,0 C 19,6 C 16,5 C 62 % 65 % 1022,6 hPa 0,0 l/m 8,7 km/h (2 Bft) N-NO 22 12,8 C 19,6 C 10,2 km/h (2 Bft)
24.07.2019 03:10 24,0 C 19,6 C 16,5 C 62 % 65 % 1022,6 hPa 0,0 l/m 8,7 km/h (2 Bft) N-NO 22 12,8 C 19,6 C 10,2 km/h (2 Bft)
24.07.2019 03:08 24,0 C 19,9 C 16,6 C 62 % 64 % 1022,6 hPa 0,0 l/m 8,7 km/h (2 Bft) N-NO 22 12,9 C 19,9 C 10,2 km/h (2 Bft)
24.07.2019 03:06 24,0 C 19,9 C 16,6 C 62 % 64 % 1022,6 hPa 0,0 l/m 8,7 km/h (2 Bft) N-NO 22 12,9 C 19,9 C 10,2 km/h (2 Bft)
24.07.2019 03:04 24,0 C 19,9 C 16,6 C 62 % 65 % 1022,6 hPa 0,0 l/m 8,7 km/h (2 Bft) N-NO 22 13,1 C 19,9 C 10,2 km/h (2 Bft)
24.07.2019 03:02 24,0 C 20,0 C 16,7 C 62 % 64 % 1022,6 hPa 0,0 l/m 8,7 km/h (2 Bft) N-NO 22 13,0 C 20,0 C 10,4 km/h (2 Bft)
24.07.2019 03:00 24,0 C 20,0 C 16,6 C 62 % 64 % 1022,6 hPa 0,0 l/m 8,4 km/h (2 Bft) N-NO 22 13,0 C 20,0 C 13,5 km/h (3 Bft)
24.07.2019 02:58 24,0 C 19,9 C 16,6 C 62 % 65 % 1022,6 hPa 0,0 l/m 8,2 km/h (2 Bft) N 360 13,1 C 19,9 C 12,7 km/h (3 Bft)
24.07.2019 02:56 24,0 C 19,8 C 16,5 C 62 % 65 % 1022,6 hPa 0,0 l/m 8,0 km/h (2 Bft) N-NO 22 13,0 C 19,8 C 8,3 km/h (2 Bft)
24.07.2019 02:54 24,0 C 19,8 C 16,4 C 62 % 65 % 1022,6 hPa 0,0 l/m 8,2 km/h (2 Bft) N-NO 22 13,0 C 19,8 C 11,2 km/h (2 Bft)
24.07.2019 02:52 24,0 C 19,5 C 16,3 C 62 % 67 % 1022,9 hPa 0,0 l/m 8,4 km/h (2 Bft) NO 45 13,2 C 19,5 C 8,7 km/h (2 Bft)
24.07.2019 02:50 24,0 C 19,6 C 16,4 C 62 % 66 % 1022,9 hPa 0,0 l/m 8,5 km/h (2 Bft) NO 45 13,1 C 19,6 C 10,2 km/h (2 Bft)
24.07.2019 02:48 24,0 C 19,6 C 16,5 C 62 % 66 % 1022,9 hPa 0,0 l/m 8,7 km/h (2 Bft) N-NO 22 13,1 C 19,6 C 10,0 km/h (2 Bft)
24.07.2019 02:46 24,0 C 19,7 C 16,6 C 62 % 66 % 1022,9 hPa 0,0 l/m 8,5 km/h (2 Bft) NO 45 13,2 C 19,7 C 11,6 km/h (2 Bft)
24.07.2019 02:44 24,0 C 19,9 C 16,7 C 62 % 65 % 1022,9 hPa 0,0 l/m 8,7 km/h (2 Bft) N-NO 22 13,1 C 19,9 C 12,0 km/h (2 Bft)
24.07.2019 02:42 24,0 C 19,8 C 16,8 C 62 % 66 % 1022,9 hPa 0,0 l/m 8,9 km/h (2 Bft) NO 45 13,3 C 19,8 C 11,4 km/h (2 Bft)
24.07.2019 02:40 24,0 C 19,8 C 16,8 C 62 % 66 % 1022,9 hPa 0,0 l/m 8,9 km/h (2 Bft) NO 45 13,3 C 19,8 C 12,6 km/h (3 Bft)
24.07.2019 02:38 24,0 C 19,8 C 16,8 C 62 % 67 % 1022,9 hPa 0,0 l/m 8,9 km/h (2 Bft) N-NO 22 13,5 C 19,8 C 9,5 km/h (2 Bft)
24.07.2019 02:36 24,0 C 19,9 C 17,1 C 62 % 66 % 1022,9 hPa 0,0 l/m 9,2 km/h (2 Bft) NO 45 13,4 C 19,9 C 11,4 km/h (2 Bft)
24.07.2019 02:34 24,0 C 20,3 C 17,2 C 62 % 66 % 1022,9 hPa 0,0 l/m 9,2 km/h (2 Bft) N-NO 22 13,7 C 20,3 C 13,7 km/h (3 Bft)
24.07.2019 02:32 24,0 C 20,4 C 17,2 C 62 % 65 % 1022,9 hPa 0,0 l/m 8,9 km/h (2 Bft) N-NO 22 13,6 C 20,4 C 13,3 km/h (3 Bft)
24.07.2019 02:30 24,0 C 20,4 C 17,1 C 62 % 65 % 1022,9 hPa 0,0 l/m 8,7 km/h (2 Bft) N-NO 22 13,6 C 20,4 C 12,4 km/h (3 Bft)
24.07.2019 02:28 24,0 C 20,4 C 17,0 C 62 % 65 % 1022,9 hPa 0,0 l/m 8,5 km/h (2 Bft) N-NO 22 13,6 C 20,4 C 11,4 km/h (2 Bft)
24.07.2019 02:26 24,0 C 20,6 C 17,0 C 62 % 65 % 1022,9 hPa 0,0 l/m 8,5 km/h (2 Bft) NO 45 13,8 C 20,6 C 14,3 km/h (3 Bft)
24.07.2019 02:24 24,0 C 20,5 C 17,1 C 62 % 65 % 1022,9 hPa 0,0 l/m 8,9 km/h (2 Bft) N-NO 22 13,7 C 20,5 C 10,4 km/h (2 Bft)
24.07.2019 02:22 24,0 C 20,6 C 17,1 C 62 % 64 % 1022,9 hPa 0,0 l/m 8,7 km/h (2 Bft) N-NO 22 13,5 C 20,6 C 12,7 km/h (3 Bft)
24.07.2019 02:20 24,0 C 20,6 C 17,0 C 62 % 65 % 1022,9 hPa 0,0 l/m 8,7 km/h (2 Bft) NO 45 13,8 C 20,6 C 10,8 km/h (2 Bft)
24.07.2019 02:18 24,0 C 20,7 C 17,1 C 62 % 64 % 1022,9 hPa 0,0 l/m 8,5 km/h (2 Bft) N-NO 22 13,6 C 20,7 C 12,0 km/h (2 Bft)
24.07.2019 02:16 24,0 C 20,6 C 17,0 C 62 % 64 % 1022,9 hPa 0,0 l/m 8,4 km/h (2 Bft) N-NO 22 13,5 C 20,6 C 13,1 km/h (3 Bft)
24.07.2019 02:14 24,0 C 20,4 C 16,9 C 62 % 65 % 1022,9 hPa 0,0 l/m 8,2 km/h (2 Bft) N-NO 22 13,6 C 20,4 C 13,1 km/h (3 Bft)
24.07.2019 02:12 24,0 C 20,4 C 16,9 C 62 % 65 % 1023,0 hPa 0,0 l/m 8,2 km/h (2 Bft) N-NO 22 13,6 C 20,4 C 10,0 km/h (2 Bft)
24.07.2019 02:10 24,0 C 20,4 C 16,9 C 62 % 66 % 1023,0 hPa 0,0 l/m 8,2 km/h (2 Bft) SW 225 13,8 C 20,4 C 12,0 km/h (2 Bft)
24.07.2019 02:08 24,0 C 20,1 C 16,8 C 62 % 66 % 1023,0 hPa 0,0 l/m 8,2 km/h (2 Bft) N 360 13,5 C 20,1 C 12,2 km/h (2 Bft)
24.07.2019 02:06 24,0 C 20,2 C 16,8 C 62 % 66 % 1023,0 hPa 0,0 l/m 8,4 km/h (2 Bft) N 360 13,6 C 20,2 C 9,5 km/h (2 Bft)
24.07.2019 02:04 24,0 C 20,2 C 16,8 C 62 % 67 % 1023,0 hPa 0,0 l/m 8,4 km/h (2 Bft) N 360 13,9 C 20,2 C 9,8 km/h (2 Bft)
24.07.2019 02:02 24,0 C 20,2 C 16,8 C 62 % 67 % 1023,0 hPa 0,0 l/m 8,2 km/h (2 Bft) N-NO 22 13,9 C 20,2 C 10,6 km/h (2 Bft)
24.07.2019 02:00 24,0 C 20,1 C 16,7 C 62 % 67 % 1023,0 hPa 0,0 l/m 8,0 km/h (2 Bft) N-NO 22 13,8 C 20,1 C 10,2 km/h (2 Bft)
24.07.2019 01:58 24,0 C 20,0 C 16,7 C 62 % 68 % 1023,0 hPa 0,0 l/m 8,0 km/h (2 Bft) N 360 13,9 C 20,0 C 11,4 km/h (2 Bft)
24.07.2019 01:56 24,0 C 19,9 C 16,6 C 62 % 68 % 1023,0 hPa 0,0 l/m 8,0 km/h (2 Bft) N-NO 22 13,8 C 19,9 C 12,9 km/h (3 Bft)
24.07.2019 01:54 24,0 C 19,8 C 16,6 C 62 % 69 % 1023,0 hPa 0,0 l/m 8,2 km/h (2 Bft) N-NO 22 13,9 C 19,8 C 9,8 km/h (2 Bft)
24.07.2019 01:52 24,0 C 19,8 C 16,6 C 62 % 69 % 1023,4 hPa 0,0 l/m 8,4 km/h (2 Bft) N 360 13,9 C 19,8 C 9,1 km/h (2 Bft)
24.07.2019 01:50 24,0 C 20,0 C 16,8 C 62 % 69 % 1023,4 hPa 0,0 l/m 8,7 km/h (2 Bft) N-NO 22 14,1 C 20,0 C 11,0 km/h (2 Bft)
24.07.2019 01:48 24,0 C 19,9 C 16,8 C 62 % 69 % 1023,4 hPa 0,0 l/m 8,7 km/h (2 Bft) N 360 14,0 C 19,9 C 10,8 km/h (2 Bft)
24.07.2019 01:46 24,0 C 20,1 C 16,8 C 62 % 69 % 1023,4 hPa 0,0 l/m 8,7 km/h (2 Bft) N 360 14,2 C 20,1 C 12,2 km/h (2 Bft)
24.07.2019 01:44 24,0 C 20,1 C 16,9 C 62 % 68 % 1023,4 hPa 0,0 l/m 8,5 km/h (2 Bft) N 360 14,0 C 20,1 C 10,2 km/h (2 Bft)
24.07.2019 01:42 24,0 C 20,2 C 16,9 C 62 % 68 % 1023,4 hPa 0,0 l/m 8,4 km/h (2 Bft) N 360 14,1 C 20,2 C 12,2 km/h (2 Bft)
24.07.2019 01:40 24,0 C 20,2 C 16,8 C 62 % 69 % 1023,4 hPa 0,0 l/m 8,4 km/h (2 Bft) N-NO 22 14,3 C 20,2 C 10,6 km/h (2 Bft)
24.07.2019 01:38 24,0 C 20,2 C 16,8 C 62 % 69 % 1023,4 hPa 0,0 l/m 8,2 km/h (2 Bft) N-NO 22 14,3 C 20,2 C 9,7 km/h (2 Bft)
24.07.2019 01:36 24,0 C 20,2 C 16,8 C 62 % 69 % 1023,4 hPa 0,0 l/m 8,2 km/h (2 Bft) N-NO 22 14,3 C 20,2 C 10,2 km/h (2 Bft)
24.07.2019 01:34 24,0 C 20,2 C 16,7 C 62 % 69 % 1023,4 hPa 0,0 l/m 8,2 km/h (2 Bft) N-NO 22 14,3 C 20,2 C 10,8 km/h (2 Bft)
24.07.2019 01:32 24,0 C 20,3 C 16,8 C 62 % 69 % 1023,2 hPa 0,0 l/m 8,2 km/h (2 Bft) N 360 14,4 C 20,3 C 9,8 km/h (2 Bft)
24.07.2019 01:30 24,0 C 20,2 C 16,7 C 62 % 69 % 1023,2 hPa 0,0 l/m 8,2 km/h (2 Bft) N-NO 22 14,3 C 20,2 C 9,7 km/h (2 Bft)
24.07.2019 01:28 24,0 C 20,2 C 16,7 C 62 % 69 % 1023,2 hPa 0,0 l/m 8,4 km/h (2 Bft) N-NO 22 14,3 C 20,2 C 10,4 km/h (2 Bft)
24.07.2019 01:26 24,0 C 20,3 C 16,8 C 62 % 70 % 1023,2 hPa 0,0 l/m 8,4 km/h (2 Bft) N-NO 22 14,6 C 20,3 C 9,8 km/h (2 Bft)
24.07.2019 01:24 24,0 C 20,3 C 16,9 C 62 % 70 % 1023,2 hPa 0,0 l/m 8,4 km/h (2 Bft) N 360 14,6 C 20,3 C 11,6 km/h (2 Bft)
24.07.2019 01:22 24,0 C 20,3 C 16,9 C 62 % 70 % 1023,2 hPa 0,0 l/m 8,5 km/h (2 Bft) N-NO 22 14,6 C 20,3 C 11,2 km/h (2 Bft)
24.07.2019 01:20 24,0 C 20,3 C 16,9 C 62 % 70 % 1023,2 hPa 0,0 l/m 8,5 km/h (2 Bft) N-NO 22 14,6 C 20,3 C 10,4 km/h (2 Bft)
24.07.2019 01:18 24,0 C 20,2 C 16,9 C 62 % 71 % 1023,2 hPa 0,0 l/m 8,4 km/h (2 Bft) N-NO 22 14,8 C 20,2 C 11,0 km/h (2 Bft)
24.07.2019 01:16 24,0 C 20,2 C 16,9 C 62 % 71 % 1023,2 hPa 0,0 l/m 8,4 km/h (2 Bft) N-NO 22 14,8 C 20,2 C 11,8 km/h (2 Bft)
24.07.2019 01:14 24,0 C 20,2 C 16,8 C 62 % 71 % 1023,2 hPa 0,0 l/m 8,4 km/h (2 Bft) N-NO 22 14,8 C 20,2 C 10,2 km/h (2 Bft)
24.07.2019 01:12 24,0 C 20,2 C 16,8 C 62 % 72 % 1023,4 hPa 0,0 l/m 8,2 km/h (2 Bft) N-NO 22 15,0 C 20,2 C 11,6 km/h (2 Bft)
24.07.2019 01:10 24,0 C 20,0 C 16,8 C 62 % 72 % 1023,4 hPa 0,0 l/m 8,0 km/h (2 Bft) N-NO 22 14,8 C 20,0 C 10,2 km/h (2 Bft)
24.07.2019 01:08 24,0 C 20,1 C 16,8 C 62 % 72 % 1023,4 hPa 0,0 l/m 7,9 km/h (2 Bft) N 360 14,9 C 20,1 C 9,8 km/h (2 Bft)
24.07.2019 01:06 24,0 C 20,1 C 16,8 C 62 % 72 % 1023,4 hPa 0,0 l/m 7,7 km/h (2 Bft) N 360 14,9 C 20,1 C 9,8 km/h (2 Bft)
24.07.2019 01:04 24,0 C 20,0 C 16,7 C 62 % 72 % 1023,4 hPa 0,0 l/m 7,7 km/h (2 Bft) N-NO 22 14,8 C 20,0 C 10,8 km/h (2 Bft)
24.07.2019 01:02 24,0 C 20,0 C 16,7 C 62 % 72 % 1023,4 hPa 0,0 l/m 7,7 km/h (2 Bft) N 360 14,8 C 20,0 C 9,8 km/h (2 Bft)
24.07.2019 01:00 24,0 C 20,0 C 16,7 C 62 % 72 % 1023,4 hPa 0,0 l/m 7,9 km/h (2 Bft) N 360 14,8 C 20,0 C 10,2 km/h (2 Bft)
24.07.2019 00:58 24,0 C 20,1 C 16,7 C 62 % 72 % 1023,4 hPa 0,0 l/m 8,0 km/h (2 Bft) N 360 14,9 C 20,1 C 9,3 km/h (2 Bft)
24.07.2019 00:56 24,0 C 20,1 C 16,7 C 62 % 72 % 1023,4 hPa 0,0 l/m 8,0 km/h (2 Bft) N 360 14,9 C 20,1 C 11,6 km/h (2 Bft)
24.07.2019 00:54 24,0 C 20,2 C 16,8 C 62 % 72 % 1023,4 hPa 0,0 l/m 8,0 km/h (2 Bft) N 360 15,0 C 20,2 C 9,1 km/h (2 Bft)
24.07.2019 00:52 24,0 C 20,1 C 16,8 C 62 % 72 % 1023,4 hPa 0,0 l/m 8,0 km/h (2 Bft) N-NO 22 14,9 C 20,1 C 11,6 km/h (2 Bft)
24.07.2019 00:50 24,0 C 20,0 C 16,7 C 62 % 72 % 1023,4 hPa 0,0 l/m 7,6 km/h (2 Bft) N-NO 22 14,8 C 20,0 C 10,4 km/h (2 Bft)
24.07.2019 00:48 24,0 C 20,0 C 16,7 C 62 % 72 % 1023,4 hPa 0,0 l/m 7,4 km/h (2 Bft) N 360 14,8 C 20,0 C 10,2 km/h (2 Bft)
24.07.2019 00:46 24,0 C 20,0 C 16,7 C 62 % 72 % 1023,4 hPa 0,0 l/m 7,2 km/h (2 Bft) N 360 14,8 C 20,0 C 9,3 km/h (2 Bft)
24.07.2019 00:44 24,0 C 20,2 C 16,7 C 62 % 72 % 1023,4 hPa 0,0 l/m 7,1 km/h (2 Bft) N 360 15,0 C 20,2 C 8,9 km/h (2 Bft)
24.07.2019 00:42 24,0 C 20,0 C 16,7 C 62 % 72 % 1023,4 hPa 0,0 l/m 7,2 km/h (2 Bft) N-NO 22 14,8 C 20,0 C 9,3 km/h (2 Bft)
24.07.2019 00:40 24,0 C 20,1 C 16,7 C 62 % 71 % 1023,4 hPa 0,0 l/m 7,2 km/h (2 Bft) N 360 14,7 C 20,1 C 8,7 km/h (2 Bft)
24.07.2019 00:38 24,0 C 20,4 C 16,8 C 62 % 70 % 1023,4 hPa 0,0 l/m 7,4 km/h (2 Bft) N-NO 22 14,7 C 20,4 C 8,9 km/h (2 Bft)
24.07.2019 00:36 24,0 C 20,8 C 16,9 C 62 % 70 % 1023,4 hPa 0,0 l/m 7,6 km/h (2 Bft) N-NO 22 15,1 C 20,8 C 9,7 km/h (2 Bft)
24.07.2019 00:34 24,1 C 20,8 C 17,0 C 62 % 70 % 1023,4 hPa 0,0 l/m 7,6 km/h (2 Bft) N-NO 22 15,1 C 20,8 C 8,7 km/h (2 Bft)
24.07.2019 00:32 24,1 C 20,7 C 17,1 C 62 % 71 % 1023,3 hPa 0,0 l/m 7,4 km/h (2 Bft) N 360 15,2 C 20,7 C 10,0 km/h (2 Bft)
24.07.2019 00:30 24,0 C 20,6 C 17,0 C 62 % 71 % 1023,3 hPa 0,0 l/m 7,4 km/h (2 Bft) N-NW 337 15,2 C 20,6 C 8,7 km/h (2 Bft)
24.07.2019 00:28 24,1 C 20,4 C 16,9 C 62 % 71 % 1023,3 hPa 0,0 l/m 7,4 km/h (2 Bft) N 360 15,0 C 20,4 C 9,7 km/h (2 Bft)
24.07.2019 00:26 24,0 C 20,3 C 16,9 C 62 % 71 % 1023,3 hPa 0,0 l/m 7,2 km/h (2 Bft) N 360 14,9 C 20,3 C 9,1 km/h (2 Bft)
24.07.2019 00:24 24,1 C 20,4 C 16,9 C 62 % 71 % 1023,3 hPa 0,0 l/m 7,1 km/h (2 Bft) N 360 15,0 C 20,4 C 9,5 km/h (2 Bft)
24.07.2019 00:22 24,0 C 20,3 C 16,8 C 62 % 71 % 1023,3 hPa 0,0 l/m 7,1 km/h (2 Bft) N 360 14,9 C 20,3 C 8,5 km/h (2 Bft)
24.07.2019 00:20 24,1 C 20,3 C 16,8 C 62 % 71 % 1023,3 hPa 0,0 l/m 7,1 km/h (2 Bft) N-NO 22 14,9 C 20,3 C 9,3 km/h (2 Bft)
24.07.2019 00:18 24,0 C 20,2 C 16,9 C 62 % 71 % 1023,3 hPa 0,0 l/m 7,2 km/h (2 Bft) N 360 14,8 C 20,2 C 9,5 km/h (2 Bft)
24.07.2019 00:16 24,0 C 20,4 C 16,8 C 62 % 70 % 1023,3 hPa 0,0 l/m 7,2 km/h (2 Bft) N 360 14,7 C 20,4 C 7,9 km/h (2 Bft)
24.07.2019 00:14 24,0 C 20,5 C 16,9 C 62 % 70 % 1023,3 hPa 0,0 l/m 7,6 km/h (2 Bft) N 360 14,8 C 20,5 C 8,7 km/h (2 Bft)
24.07.2019 00:12 24,1 C 20,9 C 17,0 C 62 % 69 % 1023,3 hPa 0,0 l/m 7,6 km/h (2 Bft) N 360 15,0 C 20,9 C 10,4 km/h (2 Bft)
24.07.2019 00:10 24,1 C 20,9 C 17,0 C 62 % 69 % 1023,3 hPa 0,0 l/m 7,6 km/h (2 Bft) N 360 15,0 C 20,9 C 10,4 km/h (2 Bft)
24.07.2019 00:08 24,1 C 20,9 C 17,0 C 62 % 69 % 1023,3 hPa 0,0 l/m 7,6 km/h (2 Bft) N 360 15,0 C 20,9 C 10,4 km/h (2 Bft)
24.07.2019 00:06 24,1 C 20,9 C 17,0 C 62 % 69 % 1023,3 hPa 0,0 l/m 7,6 km/h (2 Bft) N 360 15,0 C 20,9 C 10,4 km/h (2 Bft)
24.07.2019 00:04 24,1 C 20,9 C 17,0 C 62 % 69 % 1023,3 hPa 0,0 l/m 7,6 km/h (2 Bft) N 360 15,0 C 20,9 C 10,4 km/h (2 Bft)
24.07.2019 00:02 24,1 C 20,7 C 17,0 C 62 % 70 % 1023,3 hPa 0,0 l/m 7,4 km/h (2 Bft) N-NO 22 15,0 C 20,7 C 9,7 km/h (2 Bft)
24.07.2019 00:00 24,1 C 20,5 C 17,0 C 62 % 70 % 1023,3 hPa 0,0 l/m 7,2 km/h (2 Bft) N-NO 22 14,8 C 20,5 C 10,0 km/h (2 Bft)
_ Min-Zeit 05:48 04:48 05:26 00:00 06:48 04:14 - 00:20 - - 06:18 04:48 04:30
Minimum _ 23,8 C 18,8 C 15,6 C 62 % 61 % 1022,1 hPa - 7,1 km/h (2 Bft) - - 11,8 C 18,8 C 7,1 km/h (2 Bft)
_ Max-Zeit 00:00 00:04 06:52 05:04 00:42 00:34 00:00 06:28 - - 00:32 00:04 04:56
Maximum _ 24,1 C 20,9 C 18,2 C 63 % 72 % 1023,4 hPa 0,0 l/m 10,0 km/h
N-NO (2 Bft)
- - 15,2 C 20,9 C 16,8 km/h
N (3 Bft)
Durchschnitt _ 24,0 C 19,7 C 16,5 C 62 % 66 % 1022,7 hPa #0,0 l/m 8,4 km/h (2 Bft) N-NO - 13,2 C 19,7 C 10,9 km/h (2 Bft)